TIANWANG 1B (TW-1B)
1 40927U 15051C   20004.40978334  .00009975  00000-0  13323-3 0  9993
2 40927  97.1129  54.5116 0007485  15.4696 355.9445 15.58229579241072
TIANWANG 1A (TW-1A)
1 40928U 15051D   20004.53924240  .00001948  00000-0  47911-4 0  9998
2 40928  97.1267  36.3142 0012656  69.6683  85.7129 15.41752282239951
LAPAN A2
1 40931U 15052B   20002.58753715  .00000638  00000-0 -24146-6 0  9996
2 40931   5.9928  85.5229 0013528  76.7647 283.7111 14.76622055230555
LQSAT
1 40958U 15057A   20003.78960625 -.00000007  00000-0  66063-5 0  9996
2 40958  97.8766  72.3594 0017270 325.9147  34.0951 14.73102503228111
CHUBUSAT 2
1 41338U 16012B   20004.23412415  .00000260  00000-0  13402-4 0  9999
2 41338  31.0042 316.5892 0013816 279.3759  80.5314 15.00226714212909
CHUBUSAT 3
1 41339U 16012C   20004.24715601  .00000220  00000-0  10277-4 0  9997
2 41339  31.0140 314.3466 0013737 288.0231  71.8912 15.00396288212907
OUFTI-1
1 41458U 16025C   20004.50730772  .00000728  00000-0  40583-4 0  9994
2 41458  98.0994 106.5411 0165858  45.3890 316.0729 15.06355275202644
E-STAR-2
1 41459U 16025D   20004.50710143  .00000104  00000-0  96813-5 0  9991
2 41459  98.0990 106.0807 0167499  47.0050 314.5076 15.05953174202611
AAUSAT 4
1 41460U 16025E   20004.55324303  .00001573  00000-0  81174-4 0  9991
2 41460  98.0969 107.9121 0156360  37.6017 323.6018 15.08055028202780
NUSAT 1
1 41557U 16033B   20004.52985378  .00000864  00000-0  34710-4 0  9995
2 41557  97.4112  95.8443 0012435 316.5237  43.5021 15.27637061200592
BEESAT 4
1 41619U 16040W   20003.81154256  .00000981  00000-0  43864-4 0  9996
2 41619  97.3438  67.0915 0012367  49.4167 310.8145 15.23582195184179
PRATHAM
1 41783U 16059A   20004.44383826  .00000021  00000-0  13154-4 0  9999
2 41783  98.0422  64.3300 0034785 115.0007 245.4814 14.63029854174751
ALSAT 1N
1 41789U 16059G   20004.39832737  .00000079  00000-0  23846-4 0  9991
2 41789  98.0449  66.7251 0029678 103.8735 256.5772 14.64287950174878
NAYIF 1
1 42017U 17008BX  20004.13704815  .00001110  00000-0  45941-4 0  9995
2 42017  97.3818  73.9741 0006360 171.3124 188.8225 15.26026642160338
MAX VALIER SAT
1 42778U 17036P   20004.11020385  .00000646  00000-0  30995-4 0  9997
2 42778  97.3297  62.1191 0010913 239.5991 120.4168 15.22330551140575
